Location: Nakusp
(50.2330°N, 117.8000°W)
Time: 15:27:12
(UTC-08:00)

Cosmos 1939 Rocket - Visible Passes

Search period start: 25 February 2018 00:00
Search period end: 07 March 2018 00:00
Orbit: 534 x 585 km, 97.5° (Epoch: 24 February)

Date Brightness Start Highest point End Pass type
(mag) Time Alt. Az. Time Alt. Az. Time Alt. Az.
25 Feb 4.0 18:35:26 16° ESE 18:37:41 25° ENE 18:41:03 10° N visible
25 Feb 4.2 20:11:20 32° SW 20:12:28 38° W 20:16:19 10° NNW visible
26 Feb 4.0 18:33:53 15° ESE 18:36:20 24° ENE 18:39:38 10° N visible
26 Feb 4.2 20:09:47 30° SW 20:11:06 39° W 20:14:58 10° NNW visible
27 Feb 4.1 18:32:21 13° ESE 18:34:59 24° ENE 18:38:15 10° N visible
27 Feb 4.1 20:08:15 29° SW 20:09:43 40° W 20:13:36 10° NNW visible
28 Feb 4.1 18:30:49 12° ESE 18:33:38 23° ENE 18:36:50 10° NNE visible
28 Feb 4.0 20:06:43 28° SSW 20:08:21 42° W 20:12:14 10° NNW visible
01 Mar 4.1 18:29:16 11° ESE 18:32:16 22° ENE 18:35:26 10° NNE visible
01 Mar 4.0 20:05:11 27° SSW 20:06:59 43° W 20:10:53 10° NNW visible
02 Mar 4.2 18:27:46 10° ESE 18:30:55 22° ENE 18:34:03 10° NNE visible
02 Mar 3.9 20:03:38 25° SSW 20:05:37 44° W 20:09:31 10° NNW visible
03 Mar 4.2 18:26:28 10° ESE 18:29:34 21° ENE 18:32:38 10° NNE visible
03 Mar 3.9 20:02:07 24° SSW 20:04:14 45° W 20:08:09 10° NNW visible
04 Mar 4.2 18:25:10 10° ESE 18:28:12 21° ENE 18:31:14 10° NNE visible
04 Mar 3.8 20:00:35 22° SSW 20:02:52 47° W 20:06:48 10° NNW visible
05 Mar 4.3 18:23:52 10° ESE 18:26:51 20° ENE 18:29:49 10° NNE visible
05 Mar 3.7 19:59:04 21° SSW 20:01:30 48° W 20:05:26 10° NNW visible
06 Mar 4.3 18:22:34 10° ESE 18:25:30 20° ENE 18:28:25 10° NNE visible
06 Mar 3.7 19:57:33 20° SSW 20:00:08 50° W 20:04:04 10° NNW visible
